GFSCGP_850_thetae_108.txt.gz
Theta_e
315 316 316 315 316 317 318 318 319 320 320 321 322 320 320 320 319 318 317 317 317 317 320 320 320 320 320 319 319 318 317 317 317 318 319 320 322 323 323 328 333 340 339 338
314 315 314 314 315 316 317 319 319 319 318 319 320 319 318 319 319 318 317 316 317 317 320 319 319 318 318 317 316 315 315 314 316 317 318 318 318 319 323 323 330 335 333 336
315 315 315 315 315 315 315 317 317 318 317 316 317 319 319 319 318 317 317 316 317 319 319 318 317 317 316 315 314 314 313 313 314 315 316 316 317 317 318 318 323 332 335 332
315 315 315 314 315 314 316 315 316 316 316 319 316 322 318 317 317 317 317 317 320 319 318 317 316 315 314 313 312 312 311 311 312 313 314 314 314 314 317 321 324 321 334 335
316 315 315 314 314 314 315 314 315 316 316 315 316 317 316 316 317 318 319 320 320 318 317 316 314 313 312 311 311 310 309 310 312 313 314 315 315 315 316 317 320 323 326 334
316 315 315 315 314 314 313 313 314 314 315 318 316 315 317 318 318 317 320 320 318 317 316 314 312 311 310 309 308 307 308 310 310 310 313 313 315 317 317 317 318 319 323 325
316 315 315 313 314 312 312 313 316 317 318 317 315 316 317 317 319 318 321 319 317 315 313 312 310 309 308 307 306 305 306 307 305 308 311 312 313 313 315 317 317 320 320 324
315 317 315 314 313 314 312 313 315 318 319 316 315 320 318 320 320 319 318 317 314 312 311 310 309 308 307 305 304 303 303 304 304 307 309 312 312 311 313 317 319 320 321 322
315 316 315 314 313 313 315 315 313 314 314 319 319 317 317 320 319 317 317 314 311 310 308 308 307 306 305 304 303 301 301 302 303 305 306 311 313 313 315 319 320 323 323 321
315 315 314 314 312 312 314 314 317 315 318 319 316 318 322 320 318 315 313 310 308 307 306 306 306 305 304 302 301 300 298 300 302 304 305 308 312 314 316 322 324 328 325 327
314 312 314 312 312 311 312 313 315 316 315 318 317 322 316 315 314 313 311 308 307 306 305 305 304 304 302 300 299 298 297 300 301 302 304 307 310 316 316 321 324 328 328 327
313 312 313 312 311 310 311 311 314 319 318 317 317 318 314 311 312 310 308 307 306 305 303 303 303 302 300 298 297 296 296 298 299 300 302 305 308 312 315 319 322 324 326 325
311 312 311 313 311 309 309 311 311 311 311 310 311 311 313 312 310 309 308 307 305 304 302 301 300 299 298 297 296 295 294 296 298 300 301 302 306 310 312 316 320 322 324 322
307 309 311 313 311 310 310 309 309 309 311 310 309 311 312 308 308 309 307 306 303 301 299 298 297 296 295 295 294 294 293 295 296 298 299 300 302 305 307 311 315 316 321 324
307 308 309 308 306 306 307 307 307 306 306 308 306 305 308 308 309 306 305 303 301 299 298 296 295 294 293 292 292 292 292 294 295 296 296 297 300 302 304 305 307 311 316 318
306 308 308 307 306 305 304 304 304 305 305 304 303 304 306 304 303 302 301 300 298 297 295 294 293 292 291 290 291 291 291 292 293 294 294 296 298 300 301 301 303 305 310 315
305 307 305 305 305 302 302 304 303 304 304 305 304 306 304 301 299 298 298 296 295 293 292 291 291 290 289 289 290 289 289 291 292 292 293 295 295 297 297 298 300 300 302 304
305 305 304 304 303 301 307 305 305 305 306 305 305 303 301 299 296 294 294 293 292 291 290 289 289 289 289 289 290 290 290 291 291 291 292 293 294 294 295 296 296 297 297 299
303 304 303 304 303 307 305 304 303 304 304 300 301 301 300 297 294 293 291 290 289 289 289 288 288 288 288 289 289 289 290 290 290 291 291 292 292 292 292 292 292 292 294 295
302 303 306 306 306 305 306 303 303 302 304 298 297 297 298 299 300 293 289 289 289 289 289 288 288 288 288 288 288 288 289 289 290 290 291 291 291 291 291 290 291 291 292 292
303 305 305 306 306 305 303 302 302 305 301 295 293 294 297 295 293 289 288 287 288 288 289 288 288 288 287 288 288 289 288 288 288 289 290 290 291 291 291 292 292 291 290 291
304 304 305 306 307 307 300 302 303 298 296 293 292 292 291 290 288 288 287 287 288 288 288 288 287 287 287 287 287 288 289 288 288 288 289 288 289 290 290 291 291 291 291 291
308 305 307 303 303 297 296 296 295 296 295 293 291 290 290 288 287 286 286 286 286 287 287 287 287 286 285 285 285 286 287 287 287 287 287 287 288 288 288 289 289 290 290 290
304 304 303 302 298 296 295 294 294 293 292 291 290 289 288 287 286 286 286 285 286 285 285 286 285 284 283 284 284 285 285 286 286 286 286 286 285 285 285 285 285 285 285 286
304 304 302 300 298 296 295 293 292 291 291 290 289 288 287 287 287 286 285 285 284 284 284 284 283 283 282 282 283 283 284 284 285 285 285 285 285 285 284 284 284 283 282 280
304 304 304 306 299 299 295 293 292 291 290 290 289 289 288 287 286 285 285 284 283 282 282 282 283 282 281 281 282 283 282 283 283 284 284 283 283 283 283 283 283 283 283 282

GFSCGP_850_thetae_111.txt.gz
Theta_e
316 313 312 313 314 314 314 315 314 315 316 317 317 317 315 315 317 317 316 317 317 317 320 320 320 320 320 320 319 317 316 315 314 315 316 316 315 315 315 317 329 335 336 335
313 314 313 313 313 313 313 313 314 314 315 315 315 315 314 314 316 317 317 317 317 320 320 319 319 318 317 316 315 314 313 313 313 314 315 315 316 317 316 315 318 320 327 333
313 314 314 313 313 313 313 314 314 313 313 314 314 315 315 315 316 317 318 316 317 319 318 317 316 315 315 314 314 313 312 311 311 312 314 315 316 316 317 317 317 316 322 330
313 313 314 314 314 313 314 313 314 315 316 317 313 318 314 314 314 316 318 316 317 317 316 315 314 313 312 312 312 311 310 310 311 312 314 315 316 317 317 317 318 318 317 320
315 314 313 315 315 313 314 313 313 314 314 315 314 316 314 314 314 316 317 317 316 315 314 312 312 311 311 311 309 308 308 309 311 312 313 314 315 316 317 317 317 318 318 318
314 314 315 315 314 313 313 313 312 313 314 316 313 315 314 312 316 317 318 317 315 312 311 310 310 310 308 307 306 305 306 308 310 311 312 312 313 315 317 318 317 317 318 319
315 315 313 314 314 312 311 312 313 312 316 314 312 316 314 314 317 319 319 314 311 310 309 308 308 307 306 305 304 304 305 306 308 310 311 310 312 314 315 317 318 317 317 319
315 314 314 313 314 313 311 310 312 316 315 318 315 318 317 319 317 314 312 310 309 308 307 307 306 305 304 303 302 302 303 304 305 307 309 309 310 313 314 315 316 315 317 319
315 314 314 313 313 312 314 313 311 314 312 313 313 317 318 312 316 313 311 309 307 306 306 305 304 304 303 301 301 300 300 302 303 306 307 308 309 310 313 314 314 314 318 320
314 315 314 315 313 312 313 312 314 314 315 317 315 319 314 311 309 310 308 307 306 305 304 304 302 302 301 299 298 299 299 300 300 303 306 306 307 308 309 312 314 315 319 321
313 313 313 313 314 313 313 314 315 315 317 317 318 320 308 307 308 308 307 305 303 303 302 301 300 299 298 297 296 295 297 298 299 301 303 305 306 307 308 310 312 314 317 319
314 313 312 312 312 312 311 312 313 315 316 315 316 318 310 309 308 309 306 303 302 301 300 298 297 297 295 295 294 294 294 296 298 299 301 302 302 303 306 306 310 313 316 319
313 312 313 311 311 311 310 310 313 313 313 313 312 314 312 311 309 306 303 302 300 299 297 296 295 294 294 293 293 293 294 296 297 298 299 300 300 301 302 304 308 310 313 318
309 311 310 310 312 310 309 309 310 311 308 309 308 313 311 309 307 305 302 300 298 296 295 294 293 292 292 292 292 292 293 295 296 297 297 297 298 298 299 302 304 307 309 314
308 308 309 309 310 307 306 307 308 309 307 307 307 309 308 305 303 302 300 298 297 295 294 293 292 291 290 290 291 291 292 294 294 295 295 295 294 295 297 299 301 303 305 307
307 308 307 308 308 305 304 304 303 304 304 304 306 306 302 301 300 298 297 296 295 293 292 291 291 289 289 289 290 291 292 292 293 293 293 293 293 293 294 296 298 300 301 301
305 305 306 307 307 305 302 305 306 307 305 307 306 305 300 298 297 295 295 294 293 291 290 289 289 289 288 289 289 290 291 291 292 292 292 292 292 292 292 293 295 295 296 297
305 304 305 306 302 303 305 304 305 305 302 303 303 301 298 295 293 292 291 291 290 290 289 288 288 288 289 289 289 290 291 290 291 291 291 291 292 293 292 293 293 293 292 293
304 304 303 304 305 306 305 304 302 301 301 298 299 299 296 293 292 291 290 289 289 289 289 288 288 288 289 289 289 289 289 289 289 290 291 291 292 293 293 292 292 291 292 292
302 303 303 304 305 304 302 303 302 302 299 296 295 295 297 295 296 290 289 289 289 288 288 288 288 288 289 289 289 288 288 288 288 288 289 290 291 291 292 292 292 291 291 291
302 302 304 304 304 304 303 303 302 299 297 294 294 292 295 291 290 289 288 288 289 288 288 288 287 287 287 288 288 288 287 287 287 287 288 289 289 289 290 290 290 291 291 292
303 303 303 303 303 304 298 300 301 295 294 293 292 290 288 288 288 288 287 288 288 288 288 287 286 286 286 287 287 287 287 286 287 286 286 286 286 286 287 287 288 288 287 287
302 300 302 301 300 296 296 295 296 295 293 292 291 290 288 288 287 286 286 287 287 287 286 285 285 285 285 285 286 286 286 286 285 286 285 285 285 285 285 284 284 284 284 285
304 304 298 299 297 295 294 294 294 293 292 290 290 289 288 286 286 286 286 286 286 285 285 285 284 284 284 284 285 285 285 285 285 284 284 284 284 284 284 283 283 283 282 281
302 302 300 299 297 295 294 293 292 291 290 289 288 288 287 286 286 286 285 284 284 284 284 284 283 281 281 283 283 283 284 283 284 283 283 283 283 283 282 282 282 281 281 280
303 299 298 300 296 296 294 292 291 290 289 289 288 288 287 287 286 285 284 284 284 285 284 282 281 281 281 282 282 282 282 281 281 282 282 281 282 282 282 281 281 281 281 280

GFSCGP_850_thetae_114.txt.gz
Theta_e
314 312 312 311 311 313 313 313 313 313 311 313 312 314 314 313 313 313 313 315 316 317 318 318 319 319 319 319 319 318 315 313 313 313 313 313 313 314 314 315 319 327 333 335
314 314 314 312 311 313 314 314 313 312 312 312 311 313 313 313 313 313 313 314 319 318 316 317 317 318 317 315 314 313 312 312 312 312 312 312 313 313 314 315 314 314 318 325
313 313 313 313 312 313 313 313 312 312 313 312 312 313 312 312 313 313 313 313 318 319 317 314 315 315 314 313 312 312 311 311 311 311 312 313 313 314 315 316 316 316 316 315
312 312 312 312 313 312 313 313 313 314 313 314 312 315 312 311 311 312 312 316 316 314 312 313 312 312 311 310 310 309 309 310 310 311 312 313 314 314 314 315 316 317 317 317
313 313 312 313 313 313 314 312 313 313 313 312 313 313 312 311 311 311 316 315 313 311 310 308 309 310 307 306 305 305 306 306 307 309 310 311 312 313 314 314 316 317 318 318
312 313 313 313 313 312 312 312 312 312 312 310 311 312 310 311 315 316 316 312 310 308 307 307 306 306 305 304 304 304 305 306 307 308 309 310 311 311 313 314 316 318 318 319
314 313 313 313 314 312 310 311 314 309 312 312 312 313 312 317 315 317 312 308 307 306 304 304 304 303 303 303 304 304 305 306 306 307 308 309 309 309 311 313 315 316 317 319
314 314 313 312 314 313 311 311 312 313 313 313 312 312 315 310 305 307 308 307 305 304 303 302 302 301 300 301 302 303 303 305 305 306 306 307 308 309 309 310 312 314 315 317
313 314 313 313 312 311 312 310 310 313 311 309 310 313 312 306 305 302 301 301 302 301 301 300 300 300 300 300 299 299 302 303 304 304 305 306 307 308 308 309 309 312 315 316
313 314 312 313 312 312 311 310 313 311 313 315 313 314 311 310 306 304 302 300 300 299 299 299 298 298 298 297 298 298 298 299 299 301 302 303 305 305 307 307 308 309 313 315
312 313 312 314 314 314 313 313 314 312 312 314 315 313 309 308 308 305 302 300 300 298 297 296 296 296 295 295 295 296 298 299 300 300 301 302 302 302 304 306 307 308 311 313
313 313 314 312 313 311 312 313 314 311 311 312 311 315 309 308 309 305 303 301 298 298 297 296 295 295 294 293 294 295 296 298 298 300 299 298 299 301 302 303 305 306 308 310
312 313 315 313 311 310 311 310 312 312 312 313 310 312 310 309 306 303 300 299 297 296 294 293 292 292 292 292 292 293 295 296 297 297 297 297 297 298 299 300 302 304 305 306
312 312 313 313 311 309 309 309 312 312 311 309 307 311 310 306 303 300 298 296 295 294 293 292 291 290 290 290 291 292 293 294 295 295 295 296 295 295 296 297 299 300 301 302
307 308 309 310 311 309 309 305 308 311 309 308 308 310 308 303 300 298 297 295 294 293 292 291 289 289 289 288 290 291 292 292 293 294 294 294 294 294 295 295 295 296 298 298
306 307 307 309 309 306 304 304 303 303 306 308 308 307 303 300 298 296 296 294 293 291 291 290 288 288 289 288 290 291 291 292 292 293 293 293 294 294 294 294 294 294 296 297
305 306 308 311 308 308 306 303 307 306 304 306 305 304 299 297 295 295 294 293 291 290 289 288 288 288 288 288 289 290 291 291 292 292 292 292 293 293 294 294 293 292 293 294
303 305 305 307 307 309 305 306 306 303 301 303 302 300 298 295 292 291 291 291 290 289 288 288 288 288 288 288 289 289 290 291 291 292 292 292 292 292 293 294 294 293 292 292
304 305 306 305 305 305 305 304 303 303 300 298 300 297 294 292 291 290 289 289 289 288 288 288 288 288 288 288 288 288 289 290 290 289 288 289 289 290 290 291 291 292 292 292
305 303 303 304 304 304 301 303 301 299 298 295 296 297 294 292 293 290 289 288 288 288 287 287 288 288 288 288 288 287 288 287 287 286 286 286 286 286 287 287 286 289 290 290
302 302 302 305 303 303 302 303 301 299 298 294 294 293 295 294 290 289 288 288 288 287 287 287 287 288 288 288 287 286 286 287 286 286 286 286 285 285 284 284 286 286 286 285
302 303 304 303 302 303 297 300 301 294 293 293 292 291 291 290 288 287 288 288 287 287 286 286 287 287 287 286 286 286 285 285 285 286 285 285 285 284 284 284 284 284 284 284
301 299 300 300 297 295 295 295 295 295 292 291 290 289 289 288 287 287 287 287 287 286 286 286 285 285 285 286 286 286 285 284 284 284 284 284 283 283 283 283 284 284 282 282
303 300 296 297 296 295 295 295 295 294 292 291 290 288 288 287 286 286 286 286 286 286 285 284 283 284 284 284 284 285 284 283 283 283 283 282 282 282 281 281 281 280 280 279
301 300 298 297 296 294 294 293 293 292 291 290 289 288 287 286 286 286 285 285 285 285 284 282 282 283 283 282 282 282 282 282 282 282 282 281 281 281 281 281 280 280 279 278
301 297 297 296 296 295 294 292 292 291 290 289 288 287 286 286 286 285 285 285 284 283 282 282 282 282 282 282 282 282 281 281 282 282 281 281 281 281 281 280 280 279 279 278

GFSCGP_850_thetae_117.txt.gz
Theta_e
312 310 311 312 310 311 312 312 312 310 310 311 311 311 311 311 312 311 312 312 312 317 317 318 318 317 316 315 316 317 316 315 313 312 312 312 312 312 313 313 314 315 319 326
313 313 312 311 310 311 312 312 313 312 311 310 309 311 311 310 310 311 311 311 315 316 316 314 314 314 313 312 312 312 312 312 311 311 311 312 312 312 312 312 313 314 314 314
314 314 313 313 312 312 312 313 313 312 312 311 311 311 310 310 310 311 311 312 313 316 313 312 311 311 310 309 309 310 310 311 311 311 311 311 311 312 313 313 313 314 315 316
311 312 312 312 312 312 313 310 312 313 312 311 311 313 311 309 311 314 314 312 312 309 308 306 305 306 306 303 305 306 306 306 306 306 306 306 306 309 310 311 312 313 314 316
311 312 311 312 312 310 312 312 312 312 312 311 311 311 309 311 314 315 312 309 307 306 305 303 303 302 303 303 302 304 305 306 306 306 306 306 307 308 309 311 312 313 313 316
310 312 310 310 311 311 311 311 310 310 309 308 310 310 308 312 309 310 312 308 306 304 302 301 300 302 302 303 302 303 304 305 305 306 306 307 308 309 310 311 311 312 313 313
312 312 311 313 313 310 310 314 318 313 311 312 310 310 312 308 306 307 306 303 301 300 300 299 298 298 299 301 302 301 303 303 304 305 306 307 308 308 309 310 311 311 312 313
313 313 313 312 313 313 310 311 314 314 312 311 310 308 312 307 305 303 301 301 300 299 298 300 298 296 297 296 297 299 300 302 303 304 304 305 305 306 307 309 309 310 310 311
313 313 311 312 311 311 310 310 309 312 311 309 309 311 309 307 305 302 302 300 300 301 301 300 300 299 296 297 297 299 299 300 302 302 302 302 303 304 305 306 307 308 308 310
312 313 312 312 311 311 310 309 311 310 312 313 311 312 308 308 306 305 302 299 298 298 298 298 298 298 298 298 298 299 298 299 300 300 300 300 300 301 302 303 305 307 307 308
310 312 312 313 313 312 312 311 311 310 309 312 314 309 303 308 307 305 302 299 297 296 295 296 295 294 294 294 295 295 296 297 298 298 298 298 299 299 300 301 302 304 305 306
312 313 315 313 311 311 311 312 311 307 309 312 304 306 309 308 307 304 303 299 296 295 294 294 293 292 291 292 294 294 296 296 296 296 297 298 298 297 298 299 300 302 302 303
311 312 312 313 311 310 313 312 312 311 310 312 310 309 309 308 307 303 299 297 295 294 293 292 291 290 290 291 292 293 294 294 295 295 295 296 296 296 296 296 297 298 300 300
312 311 311 311 311 310 312 312 312 312 312 311 310 311 310 309 302 298 296 295 294 293 292 291 289 290 291 292 293 293 293 293 294 295 295 295 294 294 295 295 295 296 297 297
308 310 309 310 310 310 310 311 311 312 311 310 308 309 309 305 301 297 295 294 293 292 291 290 289 289 289 288 289 291 292 293 293 294 294 294 294 294 294 294 294 295 296 296
305 307 307 308 309 310 309 307 303 308 310 310 308 309 304 300 297 296 295 293 292 291 290 289 288 288 288 288 289 290 291 292 292 293 293 292 293 294 293 294 294 294 295 295
305 306 308 310 309 311 311 306 305 305 304 306 307 305 301 299 297 295 294 292 290 289 288 288 288 288 288 287 289 289 289 290 291 291 291 291 292 292 292 293 293 294 294 294
304 306 306 308 308 311 306 304 306 304 302 303 302 302 299 295 293 292 292 291 289 288 288 288 288 288 288 288 288 288 288 289 289 288 288 288 289 289 289 291 291 291 291 292
303 303 306 305 307 305 304 303 302 303 302 299 300 296 294 292 291 290 290 290 289 288 288 287 288 288 288 288 288 287 288 288 288 287 286 286 285 287 287 286 285 285 287 288
304 304 305 305 304 306 299 302 301 298 298 296 296 294 292 291 290 290 289 288 288 287 287 287 288 288 288 287 288 287 287 286 286 285 285 284 285 284 284 284 284 284 285 285
305 304 304 304 304 302 301 302 301 297 298 295 296 294 292 291 291 290 289 288 287 287 286 287 287 288 287 287 286 286 286 285 285 284 284 284 284 284 284 284 284 284 284 284
303 304 303 303 302 301 298 301 301 294 294 294 294 294 293 291 290 289 288 287 287 287 286 286 286 287 286 286 286 285 284 284 284 284 284 283 283 282 282 282 282 282 283 283
299 298 299 301 299 295 295 296 295 295 294 292 292 292 292 290 288 287 287 287 287 286 286 285 285 285 285 286 285 285 283 283 283 283 282 282 282 282 282 281 281 281 281 281
301 299 297 298 296 295 295 294 294 294 293 291 291 289 290 288 287 287 287 286 286 286 284 283 284 284 284 283 283 283 282 282 282 282 282 281 281 281 280 280 279 279 279 279
301 299 298 297 296 295 294 294 293 292 291 290 289 289 289 287 286 287 286 286 286 285 283 282 283 283 282 281 281 282 282 282 282 281 281 281 280 280 280 279 279 278 277 277
300 298 297 298 296 295 294 293 292 292 290 289 289 287 287 287 286 286 286 286 285 284 282 283 282 282 282 282 282 281 281 281 281 281 280 280 280 279 279 279 278 277 277 276

GFSCGP_850_thetae_120.txt.gz
Theta_e
312 311 311 312 309 309 310 310 310 308 309 310 311 311 309 310 311 310 309 310 310 314 313 314 314 314 314 314 314 314 315 315 314 314 313 313 313 312 312 312 313 313 314 315
311 312 310 310 309 311 311 312 311 310 310 310 309 309 309 308 310 311 310 313 313 311 311 310 309 309 310 309 309 310 310 311 310 311 311 311 311 311 311 311 312 312 313 313
312 313 312 312 311 311 311 312 312 312 310 309 309 310 308 309 312 312 308 308 308 307 306 306 305 303 303 304 305 305 306 308 308 309 310 310 310 311 311 311 311 312 312 313
313 312 312 312 313 312 313 310 311 311 311 310 310 312 311 310 310 312 308 306 305 303 302 301 302 301 301 301 302 303 304 305 304 305 306 307 306 306 306 306 306 309 311 312
311 311 311 311 311 310 311 310 311 311 311 310 311 310 308 308 309 311 307 304 301 300 300 299 299 299 299 299 301 302 303 306 304 304 304 306 306 306 307 307 308 308 310 312
309 310 309 310 310 309 310 311 309 308 307 312 310 310 307 309 308 307 303 301 300 300 300 301 301 300 299 299 301 302 302 303 304 305 304 305 306 307 307 308 309 309 310 311
311 310 310 311 312 310 310 312 313 311 311 313 309 309 309 307 306 305 303 300 302 302 303 303 302 303 302 301 301 302 302 302 302 303 303 303 304 306 306 307 308 309 310 311
311 310 310 311 311 311 308 311 316 315 311 309 308 309 311 306 304 303 302 300 300 300 300 301 302 303 303 304 301 301 302 302 302 302 301 299 302 303 305 306 307 307 307 308
311 312 311 311 310 311 311 314 311 313 310 311 308 309 307 307 304 303 303 301 300 298 298 297 297 298 297 299 299 299 300 299 298 298 298 298 299 301 303 304 304 304 305 306
310 312 311 311 310 309 309 308 311 311 315 313 309 309 308 307 306 302 302 300 298 297 296 297 296 296 296 295 296 296 298 298 296 297 297 297 298 299 300 301 302 302 303 303
309 310 311 311 312 311 310 311 310 310 311 311 312 308 302 307 305 302 301 300 297 296 295 294 294 293 294 294 294 295 295 296 295 294 294 294 296 296 297 297 297 298 299 299
309 310 312 312 311 310 311 312 311 313 310 309 303 306 307 306 305 304 303 299 296 295 293 292 292 292 292 292 293 294 294 295 295 294 295 296 295 295 296 296 296 296 295 297
312 311 313 309 309 309 312 311 311 311 310 312 308 308 307 307 307 304 302 298 295 293 292 292 291 290 290 290 290 291 292 293 294 294 295 295 295 295 295 294 294 295 295 296
310 310 311 311 309 309 311 311 312 313 314 312 310 309 307 308 307 300 296 295 294 292 291 290 289 289 289 289 290 291 292 293 293 294 294 294 294 294 294 293 293 293 293 294
308 311 310 310 310 310 310 310 311 314 313 313 310 309 309 308 303 296 295 294 293 292 290 289 289 289 288 289 290 290 291 292 292 293 294 294 294 294 294 293 292 292 292 292
305 307 307 308 309 310 310 309 309 310 312 311 309 308 307 301 297 295 294 293 292 291 290 289 288 288 288 288 289 290 291 291 292 291 291 290 291 291 291 292 292 293 293 293
306 306 307 310 307 307 311 309 307 305 304 307 310 307 300 298 297 295 294 293 291 290 289 288 288 288 287 287 288 288 289 290 291 291 289 289 287 287 287 287 288 288 288 289
305 305 307 309 308 310 306 302 305 304 304 303 303 302 300 298 295 294 294 292 290 289 288 288 287 287 288 287 287 288 288 289 287 286 285 285 285 286 285 286 286 285 285 285
303 304 307 307 307 306 304 303 301 302 302 299 301 299 294 292 292 291 291 291 290 289 288 287 288 288 288 288 288 288 287 287 286 285 285 285 284 284 284 284 284 284 285 285
303 304 307 304 303 303 299 302 302 300 301 297 298 295 293 293 295 288 290 290 288 288 288 288 288 288 288 288 287 287 286 285 284 284 283 283 283 283 283 283 283 283 283 283
306 305 306 304 304 302 299 301 299 299 300 297 297 294 292 291 291 291 289 288 288 287 287 287 287 287 287 286 285 285 285 284 283 283 282 282 282 282 282 282 283 282 282 282
305 304 304 304 303 301 300 300 300 296 293 295 294 293 291 290 290 289 288 287 287 286 286 286 287 287 286 285 285 284 283 282 282 282 282 282 282 282 281 281 281 281 281 281
303 297 297 300 298 294 296 297 297 296 295 294 294 292 292 291 289 288 287 287 287 286 286 286 286 286 285 285 284 283 282 282 282 282 282 281 281 281 280 280 280 280 279 279
300 298 294 296 295 294 295 295 295 295 295 295 295 294 293 292 289 288 287 287 286 286 286 285 285 284 284 284 283 282 282 282 282 281 281 280 280 280 279 278 278 278 277 277
299 298 298 296 295 295 294 294 294 294 293 292 291 292 292 291 288 287 287 286 286 285 283 283 283 282 282 281 282 282 282 281 281 281 280 280 279 278 278 277 277 277 276 276
299 298 299 299 297 296 295 294 293 293 291 291 291 289 289 290 288 287 286 286 285 283 282 282 282 282 281 281 281 281 281 280 280 280 279 278 278 278 277 277 277 276 275 275

GFSCGP_850_thetae_123.txt.gz
Theta_e
312 316 316 315 313 310 310 311 312 312 312 312 313 313 312 311 313 311 312 311 309 306 304 307 308 308 308 310 311 311 310 312 312 313 314 313 312 312 313 313 313 313 313 313
313 316 314 311 311 312 313 314 315 313 312 313 313 313 312 313 312 308 308 307 306 305 304 304 305 306 306 306 306 307 307 307 308 309 310 310 310 311 311 311 312 312 312 312
314 312 312 312 312 313 313 314 314 314 313 311 312 312 314 311 311 308 307 306 304 303 301 302 302 302 303 304 304 304 304 305 306 306 306 307 308 308 308 308 309 310 311 312
314 313 313 314 314 313 315 312 313 313 313 315 312 315 313 311 311 308 306 302 301 301 301 301 301 302 302 302 302 303 304 305 306 306 306 306 306 306 305 306 307 308 309 310
312 312 312 314 314 312 313 311 312 312 313 313 313 315 313 309 310 307 305 302 301 302 303 303 303 303 303 303 303 303 303 302 304 305 307 307 306 305 304 303 306 307 308 309
310 309 310 312 310 311 310 312 311 311 313 315 314 314 313 310 309 306 304 302 301 301 300 301 301 302 303 304 305 305 304 304 303 304 307 307 304 305 304 305 305 307 307 308
311 312 311 311 313 311 312 314 314 315 314 315 310 313 314 308 307 308 305 302 300 300 300 299 299 299 299 300 301 302 304 304 304 303 303 302 304 304 304 302 305 305 305 306
313 311 311 311 312 313 312 313 314 315 314 312 310 314 313 308 305 304 303 303 301 298 297 298 298 298 298 298 300 299 299 300 301 302 302 303 299 301 302 303 302 301 301 302
312 312 310 311 310 312 313 315 313 315 312 315 313 311 308 307 305 304 304 303 300 297 298 297 297 296 296 297 298 298 298 299 298 299 298 300 301 299 300 301 299 299 298 300
311 313 311 311 311 310 313 311 315 316 317 315 312 312 314 309 306 306 305 303 299 298 296 295 294 294 294 294 295 296 296 296 296 294 295 294 296 296 297 297 297 297 297 298
311 312 312 312 314 314 312 313 312 313 314 315 313 314 309 310 307 305 303 301 299 297 296 295 293 293 292 293 294 295 294 294 294 295 295 295 295 297 296 296 296 296 296 297
311 313 315 313 311 311 312 314 313 315 314 312 311 314 309 309 308 305 303 301 299 296 295 294 292 291 290 292 293 293 293 293 293 293 294 294 294 294 294 295 294 295 296 295
312 313 315 314 313 312 314 313 313 313 312 314 314 312 308 307 307 304 303 300 297 294 293 292 291 290 289 289 289 292 292 292 292 293 293 294 293 294 294 294 294 294 294 294
311 312 313 314 312 312 313 313 313 314 315 314 314 312 310 308 307 305 303 299 295 293 292 291 290 289 288 288 289 291 291 291 292 292 292 292 292 292 293 293 293 294 294 294
311 312 311 312 310 311 311 311 312 313 313 313 312 312 311 309 308 306 299 295 294 292 291 290 289 288 288 288 289 290 290 290 290 290 289 289 289 289 290 290 290 291 292 293
307 311 310 311 310 311 312 311 311 311 312 313 313 313 309 308 307 298 296 295 294 292 290 289 288 288 288 287 288 290 290 290 290 290 290 289 288 287 287 286 286 287 287 288
307 309 309 311 309 310 312 310 310 310 310 310 311 311 305 303 301 299 296 295 293 292 290 289 288 288 288 287 288 289 289 290 288 286 285 285 285 285 286 286 286 286 286 285
308 308 309 310 309 311 308 304 306 309 309 307 307 306 304 304 300 297 295 294 292 291 289 288 288 287 288 288 289 289 288 287 286 285 285 284 284 284 284 284 284 284 284 284
307 308 309 309 310 308 307 305 305 307 308 305 305 302 297 295 295 293 293 294 292 289 289 288 287 288 288 288 288 288 287 285 285 284 283 283 283 282 282 283 282 282 282 282
306 307 308 307 308 308 306 303 302 302 307 302 302 299 296 296 300 297 291 291 290 289 288 288 288 288 288 288 288 287 286 284 284 283 282 282 282 281 281 282 282 281 281 281
306 307 308 306 307 306 303 302 300 306 307 300 300 297 296 300 298 292 291 290 289 289 288 287 287 287 287 286 286 285 284 283 282 282 282 281 281 280 280 281 281 281 280 280
307 307 307 306 307 306 301 300 303 301 295 297 296 294 294 292 291 290 290 289 288 287 287 287 287 287 287 286 284 284 283 282 282 282 281 281 280 280 280 280 280 280 280 280
306 306 306 305 306 297 297 297 297 296 295 295 295 293 293 290 290 289 288 288 287 287 287 287 287 287 286 285 284 283 282 282 282 281 281 280 280 279 279 280 279 278 278 278
301 298 302 302 299 297 296 297 296 296 296 296 296 294 293 291 289 287 288 287 286 286 286 286 286 286 285 284 282 282 282 282 281 280 280 279 279 279 278 278 277 276 276 276
301 300 300 299 296 296 295 296 296 295 295 295 294 294 293 293 289 289 287 287 286 286 285 285 285 284 284 282 282 282 281 281 280 279 279 279 278 278 277 276 276 275 275 275
300 300 303 304 299 299 297 296 295 295 294 294 294 292 292 292 290 288 287 286 286 285 284 284 283 282 282 281 281 281 280 280 279 279 278 278 278 277 276 276 275 275 274 273

GFSCGP_850_thetae_126.txt.gz
Theta_e
315 316 316 316 316 315 314 313 314 314 315 315 315 315 316 315 316 316 315 313 311 309 307 305 304 304 305 307 309 310 310 312 315 314 313 314 314 312 312 312 313 313 313 313
316 315 315 315 315 315 314 315 315 314 315 315 315 316 316 316 314 313 312 310 309 308 307 305 304 303 303 303 305 306 307 307 308 309 310 309 309 310 310 310 309 310 311 312
313 315 314 315 315 314 315 315 314 314 315 315 315 316 317 316 312 311 309 308 307 306 306 305 304 303 303 303 303 303 305 305 306 306 306 305 306 305 306 307 307 308 308 309
314 313 314 315 314 315 313 314 314 314 315 316 315 314 317 316 315 313 310 308 307 306 304 303 304 303 302 302 303 303 304 304 304 305 306 307 304 304 305 304 306 306 307 308
314 315 315 315 314 314 313 314 314 314 316 316 315 316 316 316 316 314 311 307 306 305 303 302 301 299 298 302 303 303 301 303 304 304 304 304 306 306 305 303 305 306 306 306
313 312 313 314 314 314 314 314 315 316 315 316 314 315 315 316 315 314 311 308 306 304 302 300 299 298 298 298 298 300 300 302 303 303 304 303 302 303 306 307 303 305 305 304
313 313 313 313 314 314 315 315 316 315 317 314 314 315 315 315 313 313 311 308 305 303 301 299 299 299 299 297 297 297 297 297 299 301 302 302 302 303 303 305 308 306 306 303
315 315 314 313 313 314 315 315 315 313 313 314 313 315 317 314 311 310 309 307 305 301 299 300 298 297 296 296 296 296 295 296 299 299 300 298 300 298 299 300 302 303 304 300
313 311 313 314 313 314 315 316 314 315 314 317 314 314 313 311 309 309 308 307 303 301 300 298 297 296 294 295 295 296 296 295 297 297 298 299 298 297 296 295 297 297 300 299
313 311 313 314 313 314 315 315 317 317 316 316 314 314 317 313 310 309 309 306 303 301 299 298 297 296 294 293 293 295 295 296 296 295 296 295 296 296 295 294 296 296 296 297
313 313 314 315 316 314 315 317 316 316 316 316 315 316 319 319 314 311 309 307 303 302 301 299 297 295 294 293 291 292 294 294 294 295 295 294 294 295 294 293 294 294 293 294
313 314 314 314 314 314 315 314 315 318 317 318 318 317 313 313 314 312 309 307 303 302 299 298 296 295 293 292 291 290 293 293 294 294 294 294 294 294 290 292 292 293 291 291
314 316 316 314 314 314 315 315 314 315 315 317 317 316 313 312 313 311 309 304 302 300 298 297 295 294 292 291 290 290 292 293 293 293 293 293 293 293 292 291 292 291 292 293
312 313 314 314 313 315 317 315 315 315 318 316 315 313 313 313 312 309 307 304 301 298 297 297 295 292 291 290 290 290 290 290 291 291 291 290 290 289 289 288 288 289 288 290
310 310 309 310 311 311 313 313 313 314 315 316 314 312 312 312 313 310 307 304 300 298 297 295 294 292 290 289 289 289 290 290 291 291 291 291 288 287 286 286 286 286 286 286
311 309 309 309 309 309 309 310 310 311 312 312 312 313 312 311 312 310 307 302 299 298 296 294 292 291 290 289 289 289 289 289 289 288 286 286 285 285 285 286 286 285 284 284
310 310 310 310 308 310 312 311 311 311 311 312 312 312 312 312 312 310 306 302 299 297 295 293 291 290 289 289 288 288 288 287 286 285 284 284 284 284 284 284 283 283 283 283
309 309 309 310 310 312 310 309 310 310 311 311 311 311 311 311 311 311 306 302 299 296 294 292 290 289 289 288 288 287 287 286 285 284 284 283 283 283 283 283 283 282 282 282
307 308 309 309 308 308 308 308 310 311 310 310 310 311 310 308 304 301 301 300 297 294 291 290 289 288 289 289 288 287 286 285 284 283 283 282 282 282 282 282 282 281 281 281
306 307 309 308 308 308 311 308 307 307 310 308 308 309 306 301 306 305 297 296 293 291 290 289 288 289 289 288 288 287 285 284 283 283 282 282 281 281 281 281 280 280 280 280
307 307 307 309 308 307 308 306 305 309 310 306 307 307 303 304 303 298 293 291 291 290 288 288 288 288 288 287 286 285 284 283 282 282 282 281 281 280 280 280 280 279 279 279
306 307 309 309 308 309 305 305 305 308 302 304 304 303 301 296 293 291 290 289 289 288 287 288 287 287 286 285 285 284 283 282 282 282 281 281 280 280 280 280 279 279 279 279
307 309 309 308 308 305 304 304 301 301 303 302 301 300 297 292 290 289 288 288 288 287 286 285 286 286 286 285 285 284 283 282 282 281 281 280 279 279 279 279 279 280 279 279
306 305 307 305 306 304 303 300 300 299 300 299 299 297 294 291 289 288 287 287 286 286 286 287 287 286 285 284 284 284 283 283 282 282 281 280 279 279 279 279 279 278 278 278
305 305 306 306 303 301 300 301 300 297 297 297 296 295 292 291 288 287 286 286 285 285 286 286 286 286 284 283 283 282 282 282 281 281 280 280 279 279 278 277 277 277 275 275
304 306 307 307 305 305 304 301 299 296 296 296 295 293 291 290 288 287 286 285 285 284 285 285 284 284 283 283 282 282 281 281 281 280 280 279 279 278 278 277 276 274 274 274

GFSCGP_850_thetae_129.txt.gz
Theta_e
315 318 318 318 319 319 318 317 316 317 317 317 318 318 317 317 317 318 319 318 316 314 311 310 309 308 308 308 307 307 309 310 310 311 311 310 312 314 313 314 313 313 315 314
317 318 317 317 318 318 318 317 317 317 317 317 317 317 317 319 319 318 317 316 314 314 312 310 309 309 308 307 307 306 306 306 306 306 306 306 308 309 309 309 309 309 309 310
318 317 317 316 318 317 317 317 317 317 317 317 317 317 319 319 318 316 315 314 313 312 311 310 309 308 307 306 306 305 305 304 304 306 305 306 307 307 306 306 306 306 306 306
316 316 315 315 317 316 317 316 316 316 315 317 318 320 318 321 319 317 315 314 313 311 309 309 307 305 304 304 303 303 303 302 302 304 304 305 305 306 306 305 305 304 304 304
315 315 315 316 315 315 316 316 315 315 316 317 317 318 318 319 320 319 317 315 312 310 308 306 304 303 303 303 303 302 302 302 300 303 304 303 302 301 302 302 303 303 302 304
315 315 316 316 316 316 315 315 315 316 317 318 317 317 317 319 319 318 317 314 312 308 306 304 303 303 303 302 301 302 302 301 300 299 298 300 300 301 302 302 302 300 299 299
316 315 315 315 316 315 316 316 318 319 321 321 318 317 317 318 317 316 316 314 312 308 306 305 304 303 302 301 300 299 300 299 298 297 297 297 296 296 296 298 299 300 298 299
316 315 315 315 315 316 316 316 317 315 316 316 317 318 318 318 316 315 314 314 311 307 305 305 303 302 301 300 298 297 298 298 296 296 295 296 296 296 293 296 297 298 298 298
316 316 316 315 314 314 316 317 316 316 316 317 316 316 318 317 316 314 313 312 310 306 305 303 302 301 300 299 296 295 295 296 294 295 295 295 294 294 293 293 294 292 297 295
314 315 314 315 315 315 315 315 317 317 316 316 315 316 319 319 317 315 314 312 308 306 304 303 303 300 299 296 295 295 295 294 294 295 295 294 294 293 293 292 292 292 295 294
314 313 314 316 315 313 314 316 316 316 316 316 316 318 319 320 317 316 314 313 308 305 304 303 302 300 298 296 295 293 294 293 294 294 295 295 294 293 294 294 295 293 294 295
314 313 312 315 314 314 314 315 315 321 317 319 319 321 317 317 316 315 314 312 309 306 305 304 302 300 298 296 294 293 293 293 292 293 293 293 292 291 292 292 294 293 294 294
314 316 315 312 312 315 316 315 316 316 317 318 319 319 316 315 314 314 314 313 308 306 305 303 301 299 297 295 294 293 292 293 293 293 293 292 291 291 290 290 289 289 289 290
313 314 312 312 313 316 317 316 315 315 319 319 319 317 316 315 315 314 314 312 308 306 304 303 301 298 296 294 294 293 293 293 292 292 292 291 289 289 288 288 288 288 288 288
311 313 311 311 313 314 314 315 315 316 316 319 318 315 316 315 314 314 313 311 307 305 303 302 300 297 294 293 293 293 293 292 292 291 290 289 288 287 287 287 287 287 286 286
311 312 311 311 312 311 310 310 311 311 313 314 314 315 314 313 312 312 313 310 307 305 303 301 299 295 294 293 293 292 292 291 290 289 288 287 287 286 286 285 285 285 285 284
310 311 311 312 309 309 310 309 310 310 310 310 312 312 312 312 312 312 313 311 308 305 302 299 297 294 293 292 292 292 291 290 288 287 287 285 285 284 284 283 283 283 283 282
310 311 311 312 310 313 311 310 310 310 310 311 311 312 312 311 311 311 312 311 307 304 300 297 295 293 292 291 291 291 290 289 287 286 284 284 283 283 283 282 282 282 282 281
308 309 310 310 309 308 308 309 313 313 311 310 310 310 310 310 312 310 311 309 305 301 297 295 293 291 290 289 289 290 289 288 286 284 283 283 282 282 282 282 281 281 281 281
306 308 309 308 309 309 311 308 308 310 312 310 310 310 310 311 314 313 306 304 300 298 295 293 291 290 289 289 289 288 287 286 285 284 283 282 282 281 281 281 281 280 281 280
308 307 309 309 308 307 307 307 308 309 311 309 309 309 310 311 308 306 300 298 298 295 292 290 289 289 289 289 288 286 286 284 284 282 282 282 282 281 281 281 281 281 281 281
307 307 308 308 309 309 306 308 309 310 308 308 308 309 309 301 299 298 296 295 294 292 290 289 289 289 287 287 286 285 284 283 283 282 281 281 281 281 281 281 281 281 281 281
308 309 309 307 308 308 308 307 308 306 307 307 307 307 302 297 295 294 292 292 291 290 288 287 288 289 288 287 287 285 284 283 282 281 281 280 281 281 281 281 281 282 281 281
306 306 308 307 307 308 307 306 305 304 304 305 305 304 299 295 293 291 291 290 289 288 288 289 289 289 289 288 287 286 286 285 284 284 283 282 281 281 281 281 280 279 279 279
307 307 307 307 307 307 306 306 306 303 303 303 302 300 295 293 291 290 289 288 288 288 289 289 289 289 288 287 286 285 285 284 284 283 282 282 281 281 279 277 278 278 276 276
305 308 308 309 307 307 307 306 304 303 301 301 300 297 294 293 291 290 288 288 288 288 289 289 289 288 286 286 285 284 284 284 283 283 282 282 281 280 280 280 278 277 276 275

GFSCGP_850_thetae_135.txt.gz
Theta_e
314 313 312 314 314 315 316 315 314 315 316 314 315 313 314 316 316 316 318 316 314 313 312 312 311 310 310 309 309 309 309 309 308 309 309 309 309 309 308 309 309 308 308 310
312 314 314 315 315 315 316 317 316 316 316 315 313 313 313 314 316 317 318 316 315 313 312 311 311 310 309 308 307 307 307 308 308 308 308 308 308 308 307 307 307 307 306 306
312 313 315 315 315 316 316 317 316 317 316 314 315 314 314 315 316 317 318 317 316 314 312 311 310 310 308 306 305 305 305 305 306 307 307 307 307 308 308 307 306 306 306 308
313 313 313 316 315 316 315 317 318 317 315 314 315 314 314 315 315 316 316 316 315 313 312 311 310 308 306 305 304 304 303 302 303 304 305 305 306 306 305 305 305 304 304 305
315 313 313 313 316 316 316 317 316 316 315 316 316 313 312 315 318 316 314 314 314 313 311 310 309 306 305 305 304 303 303 301 300 300 301 302 303 302 302 302 302 302 303 302
314 315 313 314 315 315 316 316 316 315 313 313 314 313 313 313 315 317 315 314 313 311 310 309 307 306 305 304 302 301 301 300 300 300 300 301 301 301 301 301 301 301 300 300
314 314 315 314 315 314 314 315 314 314 313 314 314 315 314 314 317 317 315 314 313 312 310 308 306 305 304 303 300 300 300 300 299 300 300 300 301 301 301 300 299 298 297 296
312 313 313 313 314 315 315 316 316 318 316 315 315 316 316 317 318 317 316 313 312 310 309 307 306 305 303 303 300 299 299 299 300 300 299 299 299 299 298 298 297 295 294 293
313 313 313 313 314 315 316 316 314 316 316 313 314 315 317 317 317 316 314 311 310 309 308 307 305 304 302 302 299 299 299 299 299 299 298 299 299 298 297 295 295 293 293 293
313 313 313 314 314 314 314 315 317 316 318 316 315 314 314 316 315 316 313 310 309 309 308 306 305 303 301 301 299 298 299 299 299 298 298 297 296 296 296 295 293 293 294 294
311 312 314 315 314 314 313 314 316 316 315 315 314 312 319 316 316 315 313 311 309 308 307 306 304 302 301 300 298 298 298 298 297 297 296 295 293 293 293 293 292 292 291 291
311 312 313 313 314 314 313 314 314 317 316 313 312 313 318 316 316 315 314 312 310 309 307 306 304 302 301 299 298 297 297 296 295 294 293 293 292 292 291 290 290 290 289 290
312 313 314 315 315 313 314 313 313 315 314 315 313 314 318 317 316 315 314 313 310 309 307 306 304 302 300 299 298 296 295 294 294 294 293 292 292 291 290 290 289 289 288 288
311 316 313 314 313 314 314 314 313 316 315 314 314 315 314 316 316 315 314 311 310 309 308 306 304 301 299 299 298 296 295 294 294 293 293 292 291 290 289 289 288 287 287 287
310 313 311 312 311 312 314 315 315 317 317 317 316 317 315 314 316 315 314 314 313 310 307 306 304 301 299 299 297 295 294 293 293 292 291 290 290 289 288 287 287 286 285 285
308 311 308 310 309 309 310 312 314 314 315 315 315 314 313 313 314 315 315 314 314 308 307 307 304 301 299 299 296 295 294 293 292 291 290 290 289 287 286 286 285 285 283 283
309 308 309 309 309 309 309 309 309 313 313 313 314 313 312 311 311 312 314 314 311 309 308 306 303 301 299 298 297 294 293 292 291 290 289 288 286 285 284 284 284 283 282 282
308 309 309 310 308 309 309 308 308 310 310 311 311 310 309 309 311 313 312 313 311 309 307 305 302 300 298 296 295 294 292 290 289 289 288 286 285 285 284 283 283 282 282 281
306 307 307 306 308 308 307 309 309 309 311 309 309 309 309 309 312 311 312 312 312 310 307 305 302 299 297 296 295 293 291 290 289 288 286 284 284 283 283 282 282 282 282 281
304 305 304 304 307 308 307 308 308 307 307 307 308 309 310 309 306 304 311 313 310 308 306 304 301 299 299 296 294 292 291 290 289 285 283 283 283 282 282 282 282 282 282 281
305 304 306 306 307 308 306 306 306 307 305 308 309 310 310 305 304 305 307 308 308 306 304 301 299 298 296 295 293 291 290 289 288 284 284 282 282 282 282 282 282 282 281 281
307 308 308 307 308 308 307 307 308 307 308 309 309 309 306 303 302 305 304 304 303 302 300 299 298 296 295 293 293 290 289 288 286 284 283 282 282 282 282 282 282 281 281 281
302 304 304 307 305 305 307 307 306 305 307 308 308 308 307 302 299 301 300 299 299 299 298 297 297 295 293 292 291 290 289 286 284 282 282 282 282 282 282 282 282 281 281 281
304 305 301 303 304 305 305 306 307 307 308 307 307 307 306 302 298 297 296 296 296 297 297 295 294 293 291 290 290 289 287 285 283 281 281 282 282 281 281 281 281 281 280 280
302 304 304 305 304 306 306 307 307 307 306 306 306 307 305 301 297 296 296 295 295 296 294 293 292 291 290 289 288 287 285 283 282 282 282 282 282 282 281 278 277 277 277 277
303 301 302 304 306 306 306 307 306 306 305 305 305 303 300 298 295 295 295 295 295 293 292 291 290 289 288 287 287 286 285 285 284 283 282 282 281 281 279 280 280 279 278 278

GFSCGP_850_thetae_138.txt.gz
Theta_e
312 312 312 314 313 314 314 313 313 312 314 313 313 314 312 315 314 315 313 314 314 313 312 311 311 310 310 309 308 309 309 309 309 308 308 309 309 309 309 309 309 308 308 308
312 312 313 314 313 313 313 314 314 313 315 313 311 312 311 312 314 315 314 313 313 312 311 311 311 311 310 309 308 308 308 307 308 308 308 308 308 308 307 307 307 307 308 308
311 312 313 313 313 313 314 314 314 315 315 313 311 311 312 313 314 314 314 314 313 313 312 311 311 311 310 308 308 307 305 305 305 306 306 307 307 307 307 307 306 306 306 307
310 311 312 312 313 314 314 314 315 316 315 313 312 314 311 312 313 315 314 312 312 311 311 311 311 311 310 307 306 304 302 301 301 302 303 303 304 304 303 302 302 302 302 303
311 313 313 312 312 314 314 315 314 315 314 314 313 312 311 311 313 315 313 312 311 310 311 311 311 310 308 306 305 303 301 301 300 300 300 300 301 301 300 301 301 301 301 302
311 313 312 312 312 312 315 315 313 312 312 314 313 313 314 310 314 315 313 311 311 311 311 311 310 309 307 306 304 302 301 300 300 300 300 300 300 301 301 301 301 301 301 301
314 314 314 314 313 312 313 315 316 314 312 315 314 314 315 312 312 315 313 311 311 311 310 309 308 307 306 304 303 301 301 300 300 300 300 301 301 301 301 301 301 300 299 299
313 313 312 314 313 314 313 315 316 316 315 314 313 314 313 315 314 315 314 312 308 309 309 309 308 306 305 304 301 300 300 300 300 300 300 301 301 301 301 300 299 298 296 296
312 312 311 313 313 313 314 314 314 316 316 313 312 312 315 316 315 315 313 309 308 308 309 308 306 305 304 303 301 299 299 299 299 299 300 300 300 299 299 298 297 296 295 296
312 313 311 312 313 313 313 313 316 315 316 316 314 313 315 317 315 314 311 309 307 308 308 307 306 305 304 302 301 299 299 298 298 298 298 297 297 296 296 296 295 295 294 296
310 312 311 312 312 312 313 315 315 315 315 315 315 313 311 316 315 313 311 308 307 308 308 306 305 304 303 302 300 299 298 298 297 297 296 295 295 294 293 293 292 293 293 294
311 310 311 311 311 311 311 314 315 316 315 314 314 314 315 314 315 314 312 308 309 309 307 306 305 304 303 302 300 299 298 297 297 295 293 294 293 292 292 291 291 291 290 290
311 313 312 311 311 310 311 312 314 315 314 315 315 314 316 315 314 314 312 309 307 307 307 306 305 304 302 302 301 299 297 296 295 294 293 293 292 292 291 291 290 289 289 288
309 314 313 312 311 312 313 313 313 314 316 315 314 314 315 316 314 312 312 311 308 309 308 306 305 303 302 302 301 298 296 295 294 293 293 293 292 291 291 289 288 288 287 286
306 312 310 311 310 311 312 314 315 316 317 316 315 315 316 315 314 313 312 310 308 307 307 307 306 303 301 301 300 297 295 294 294 293 292 292 291 291 289 288 287 286 285 285
307 310 309 310 309 309 310 309 311 313 314 314 315 313 312 313 314 315 312 310 310 308 311 310 305 303 301 301 300 297 295 294 293 293 292 291 291 289 287 286 285 284 283 283
308 308 309 309 310 309 309 309 308 308 309 311 311 311 310 312 311 311 314 312 311 312 311 307 306 303 301 299 299 297 295 294 293 292 291 290 289 287 285 284 284 283 282 282
307 307 308 309 309 308 307 308 308 309 309 309 310 311 311 311 311 310 311 311 312 313 313 307 305 301 300 300 299 296 295 294 292 291 290 289 286 285 284 284 283 282 281 281
306 306 306 306 308 307 306 307 308 308 308 308 310 309 308 308 312 311 311 311 311 312 311 308 306 305 302 299 297 296 294 293 292 291 289 287 285 284 283 283 282 282 282 281
304 304 302 307 306 307 306 307 307 307 305 305 306 306 309 307 308 307 310 310 311 311 310 308 305 302 299 298 298 295 294 293 291 290 288 285 284 283 282 282 282 282 282 282
303 301 305 304 307 305 305 306 306 305 304 306 308 309 309 304 303 306 308 308 309 309 308 305 303 301 299 298 296 295 294 291 290 288 284 283 283 282 282 282 282 281 281 281
304 302 303 304 305 302 305 306 306 305 306 307 308 308 306 304 302 304 304 305 305 305 303 301 300 299 297 296 295 295 292 291 289 285 284 283 282 282 282 282 281 281 281 281
301 302 302 303 302 303 305 305 305 305 305 306 307 307 306 303 301 301 301 302 302 300 299 298 299 297 295 295 295 294 292 290 288 285 283 283 282 282 282 282 282 281 281 280
304 304 299 303 303 304 305 305 306 306 307 306 307 307 307 305 301 299 299 297 297 299 298 297 297 296 295 295 294 293 290 288 287 284 282 282 282 282 282 282 281 281 281 280
300 302 301 300 302 303 304 306 306 307 307 306 307 307 306 304 299 299 299 298 297 297 297 296 296 296 295 293 292 290 289 287 284 282 282 282 282 281 281 281 280 280 279 277
301 299 299 299 302 304 305 306 306 305 305 305 305 305 303 302 299 297 296 296 296 296 295 295 295 295 293 291 290 289 288 285 283 281 282 282 282 281 278 278 277 277 277 277

GFSCGP_850_thetae_141.txt.gz
Theta_e
311 310 312 312 312 312 313 312 313 312 312 313 311 311 311 310 315 313 312 313 313 313 313 312 312 311 310 310 309 308 309 309 309 309 309 309 309 309 309 309 309 308 308 308
311 311 310 312 311 312 311 312 312 312 313 312 311 311 310 310 314 314 313 312 312 312 311 311 311 311 310 309 308 308 309 309 308 309 309 309 308 308 308 307 307 306 306 306
310 311 311 311 311 312 311 312 312 313 313 312 311 311 311 310 311 314 313 314 313 314 312 311 310 311 310 309 308 308 307 305 305 306 306 306 306 306 306 305 303 303 303 303
309 310 311 311 312 312 312 311 312 313 313 313 310 314 311 310 310 313 313 312 312 312 312 311 311 310 310 308 307 306 303 301 301 301 302 303 303 303 302 301 301 301 301 301
310 311 310 311 311 312 313 313 312 312 312 312 313 310 312 310 311 312 313 312 312 312 312 311 311 311 309 307 306 303 301 300 300 300 300 300 300 300 300 300 300 301 301 301
309 311 311 310 311 310 311 313 312 310 310 313 313 311 316 311 313 311 313 312 311 311 310 311 311 309 307 306 305 303 301 301 300 300 300 300 300 301 301 301 301 301 301 301
312 312 311 313 313 312 310 312 313 314 312 315 313 313 315 312 312 312 313 312 311 310 310 311 309 308 307 307 305 303 301 300 300 300 300 301 301 301 301 301 301 300 301 300
313 314 312 312 313 314 313 312 315 316 314 314 312 314 314 312 312 313 314 313 310 309 310 310 310 308 307 306 304 302 301 300 300 300 300 301 300 300 300 300 299 299 299 298
312 312 310 312 314 314 314 314 313 314 315 314 310 310 313 316 316 314 313 311 308 307 309 310 309 307 306 305 304 301 300 300 300 300 300 300 300 300 299 299 299 299 298 297
312 313 310 311 311 312 313 313 315 316 320 319 315 311 313 316 315 313 312 309 307 306 307 309 308 306 305 305 303 300 299 299 299 300 300 300 299 298 297 296 297 296 296 295
309 309 310 310 311 312 312 313 314 315 315 317 317 315 310 312 314 313 311 309 306 305 307 307 307 305 304 304 302 301 299 299 299 300 300 299 297 296 295 294 294 294 292 291
311 312 310 310 310 311 310 312 313 316 316 314 316 315 312 312 313 313 311 309 306 306 306 307 307 305 304 302 301 300 299 298 298 298 297 296 295 295 294 293 293 291 290 289
311 313 314 313 311 310 310 310 311 311 314 316 317 316 315 313 313 312 309 307 306 306 306 306 305 305 303 301 301 300 298 297 298 297 295 295 294 293 292 291 291 289 288 287
309 312 314 314 312 311 313 312 311 313 312 315 316 315 316 314 313 311 308 307 306 305 304 305 305 304 302 302 302 301 298 297 297 296 294 294 293 292 291 290 289 288 287 286
308 310 310 310 309 309 310 310 309 312 314 314 315 314 315 315 313 312 309 307 306 306 306 306 305 304 303 303 302 301 298 297 296 295 293 293 293 292 290 289 287 286 285 284
305 309 308 308 309 309 309 308 309 310 313 315 314 315 312 314 314 313 311 309 308 307 306 307 308 309 307 306 304 300 296 296 295 294 293 293 292 291 289 287 286 285 284 283
308 308 309 309 309 308 308 309 309 309 308 309 310 309 308 308 311 311 313 311 310 309 309 310 310 311 311 308 302 299 297 296 295 294 293 292 291 289 287 286 285 284 282 282
307 308 308 308 309 307 306 308 308 309 308 308 309 308 308 308 309 311 313 312 311 312 313 312 311 309 307 304 300 299 299 296 294 293 293 292 290 287 285 284 284 282 282 281
306 307 307 306 308 306 304 307 308 309 309 308 309 308 308 309 309 310 310 313 313 313 313 311 311 308 305 301 300 300 298 295 293 293 292 291 288 286 284 284 283 282 282 281
305 306 305 302 302 304 305 307 307 306 305 305 306 306 306 308 309 307 309 309 309 310 311 311 310 307 306 302 302 300 297 295 293 292 291 289 286 284 283 283 282 282 282 281
305 302 306 305 305 304 304 304 306 304 304 305 307 308 308 305 304 305 306 308 308 309 310 310 307 305 303 301 301 297 299 294 292 291 290 288 284 283 282 282 282 282 282 281
304 303 304 305 306 304 303 305 306 304 305 306 306 307 306 305 304 303 304 305 306 307 305 305 303 302 301 300 299 299 296 293 292 291 289 285 283 282 282 282 282 281 281 281
302 301 302 301 300 300 304 305 305 305 305 305 305 306 306 305 303 302 301 301 302 303 303 302 301 300 298 297 298 298 294 293 292 289 285 282 282 282 282 282 281 281 281 280
302 302 299 302 301 301 304 304 304 305 305 306 306 306 306 306 304 302 301 298 298 299 298 299 299 298 297 297 296 296 294 292 290 286 283 282 282 282 282 282 281 281 281 280
300 301 301 299 300 301 302 303 305 306 306 306 306 307 306 305 302 300 298 298 297 297 297 297 298 297 297 295 295 294 293 291 287 284 283 282 282 282 282 282 281 281 280 279
299 299 298 298 299 301 302 304 305 306 305 305 306 306 305 304 303 300 297 297 297 295 295 296 296 297 296 296 294 291 291 290 287 284 282 282 282 282 282 281 280 279 278 277

GFSCGP_850_thetae_144.txt.gz
Theta_e
310 309 310 310 310 311 311 310 311 311 311 312 309 308 309 310 314 314 313 313 315 315 314 313 313 312 311 310 309 308 308 309 309 309 309 309 310 309 308 308 307 307 307 307
309 310 309 310 310 311 311 311 311 310 310 312 310 310 309 308 312 314 314 312 314 314 313 313 312 312 310 309 308 308 308 308 309 309 309 308 308 306 305 304 303 303 303 303
309 310 310 310 310 311 311 311 311 311 310 310 311 310 309 308 311 313 313 314 313 313 312 312 311 311 310 310 308 308 308 307 307 307 307 306 304 304 303 302 301 301 301 301
308 308 310 310 310 310 310 310 311 310 311 309 309 310 308 308 310 312 312 312 312 312 312 312 311 310 310 310 308 307 306 305 304 304 303 302 302 301 300 300 300 301 301 301
310 309 309 310 311 311 311 310 310 310 310 311 310 310 310 311 308 311 312 312 312 313 313 312 311 310 310 309 307 306 303 301 300 300 300 300 300 300 300 301 301 301 301 302
310 309 308 309 309 310 310 311 311 309 309 310 310 310 311 309 312 310 311 312 312 312 312 311 311 310 310 308 306 304 302 300 300 300 300 300 300 301 301 301 301 301 301 302
312 312 310 311 312 310 309 310 311 312 312 314 311 311 313 311 311 310 311 312 312 312 311 310 310 309 309 308 305 304 301 300 300 300 300 300 300 301 301 301 301 301 301 301
313 316 311 310 311 312 313 312 314 315 315 314 311 313 313 311 311 311 312 313 312 311 310 310 310 309 309 307 305 303 301 300 300 300 300 300 300 300 300 300 300 300 300 300
312 312 310 311 312 312 313 314 313 314 314 316 311 309 310 314 314 313 312 312 311 311 310 309 310 309 309 306 305 303 301 300 300 299 300 300 300 300 300 299 299 299 298 297
310 312 310 309 310 311 312 312 315 315 320 319 316 314 313 312 313 312 311 310 310 309 307 307 309 309 307 306 305 303 300 300 299 299 299 299 299 299 299 298 297 297 296 295
309 309 309 309 309 310 311 313 314 315 317 320 321 316 312 312 311 311 311 311 309 307 306 306 307 307 306 305 304 302 300 299 299 298 299 298 298 297 297 297 296 295 294 291
311 313 313 311 309 308 309 310 312 315 317 316 318 317 312 312 310 311 311 311 309 307 306 305 306 306 305 305 303 302 300 299 298 298 298 297 296 296 297 296 295 293 291 289
310 311 312 308 309 309 310 310 310 311 313 314 317 316 312 312 312 312 310 307 306 305 304 305 306 306 305 304 303 301 300 298 297 297 297 296 296 296 296 295 293 291 289 288
309 311 311 311 310 310 310 309 308 309 313 313 313 313 312 312 313 310 307 307 305 305 305 305 306 306 305 303 303 302 300 297 297 297 296 296 296 295 294 293 292 289 287 286
308 306 309 308 306 308 308 309 308 309 310 311 313 313 312 312 313 311 308 306 304 303 303 305 306 306 305 304 303 303 299 298 297 297 296 295 295 294 293 292 289 287 286 286
306 305 307 302 306 307 309 309 308 308 309 312 310 309 310 309 308 310 308 306 304 302 303 304 306 308 307 305 304 302 300 297 297 297 296 294 293 293 292 289 287 286 285 284
307 307 305 306 305 306 308 306 307 308 310 309 309 308 308 308 308 308 309 309 307 305 304 306 307 307 307 305 303 300 297 298 297 296 295 293 293 292 291 288 286 285 284 283
307 307 307 308 308 308 304 307 308 308 309 308 308 307 308 308 307 308 308 308 309 309 307 311 308 306 306 305 303 302 300 297 298 296 294 293 292 292 288 286 285 284 283 282
306 307 308 308 309 306 305 304 307 308 306 308 307 307 307 308 308 308 308 309 309 311 311 310 308 306 306 305 303 302 299 300 298 297 293 292 291 290 287 285 284 283 282 282
307 306 307 305 304 302 302 306 307 305 303 305 306 306 306 308 306 306 308 308 309 308 310 311 309 308 305 304 304 301 300 300 297 296 293 292 291 288 285 284 283 282 282 282
307 307 307 307 306 304 302 303 305 304 304 304 306 306 307 304 305 305 305 307 308 308 308 309 309 309 306 304 302 300 301 299 298 294 292 291 288 285 284 283 282 282 282 281
306 306 305 306 306 305 302 304 305 303 304 305 305 305 306 306 305 303 303 304 304 305 306 306 307 304 302 302 301 300 299 299 296 293 291 290 286 284 283 282 282 282 282 281
305 302 301 302 302 300 302 304 305 304 304 304 304 305 305 306 305 303 303 302 303 302 302 303 304 302 300 299 300 299 299 297 293 292 291 288 285 283 282 282 282 282 281 280
302 300 300 302 302 300 303 305 304 304 303 305 305 305 305 305 305 303 301 300 298 299 300 300 300 300 298 298 298 299 297 294 292 292 289 285 283 282 282 282 282 281 281 280
302 302 301 299 300 300 303 303 303 302 305 305 305 305 305 304 304 302 301 298 298 298 297 297 298 298 297 296 297 295 296 293 292 290 286 283 282 282 282 282 282 281 280 279
299 300 302 301 301 300 300 302 304 305 304 305 305 305 305 304 302 300 297 297 297 297 297 295 296 297 296 296 295 295 294 292 291 288 284 283 282 282 282 282 281 280 280 279